FW2905 Weather Reports


Display with metric or nautical units.
time (UTC)temp
F
wind
direction
speed
MPH
gust
MPH
rain 1hr
in
rain 24hr
in
rain mn
in
humidity
%
barometer
mb
20260506000516 52 327 7.0 15.0 0.00 0.00 0.00 32 1009.1
20260506000039 52 266 10.0 17.0 0.00 0.00 0.00 32 1009.1
20260505235515 52 314 6.0 17.0 0.00 0.00 0.00 33 1009.1
20260505235016 52 316 8.0 15.0 0.00 0.00 0.00 33 1009.0
20260505234535 52 310 9.0 15.0 0.00 0.00 0.00 32 1009.0
20260505234018 52 295 7.0 20.0 0.00 0.00 0.00 32 1009.0
20260505233515 53 339 10.0 20.0 0.00 0.00 0.00 31 1009.0
20260505233030 53 324 9.0 19.0 0.00 0.00 0.00 31 1009.0
20260505232518 53 327 9.0 15.0 0.00 0.00 0.00 32 1008.9
20260505232020 53 309 8.0 21.0 0.00 0.00 0.00 32 1008.9
20260505231538 53 324 12.0 21.0 0.00 0.00 0.00 31 1009.0
20260505231022 53 277 10.0 21.0 0.00 0.00 0.00 31 1009.0
20260505230515 53 351 12.0 21.0 0.00 0.00 0.00 31 1009.0
20260505230036 53 317 9.0 16.0 0.00 0.00 0.00 31 1008.9
20260505225516 53 315 10.0 17.0 0.00 0.00 0.00 31 1008.9
20260505225016 53 305 10.0 17.0 0.00 0.00 0.00 31 1008.8
20260505224529 53 360 8.0 19.0 0.00 0.00 0.00 31 1008.8
20260505224015 54 335 10.0 19.0 0.00 0.00 0.00 32 1008.8
20260505223521 54 306 6.0 22.0 0.00 0.00 0.00 32 1008.8
20260505223035 54 295 12.0 23.0 0.00 0.00 0.00 30 1008.7
20260505222515 55 300 12.0 24.0 0.00 0.00 0.00 30 1008.6
20260505222012 55 332 10.0 24.0 0.00 0.00 0.00 31 1008.6
20260505221531 55 300 11.0 24.0 0.00 0.00 0.00 31 1008.7
20260505221015 55 267 9.0 21.0 0.00 0.00 0.00 30 1008.5
20260505220517 55 343 11.0 21.0 0.00 0.00 0.00 30 1008.6
20260505220030 55 307 11.0 19.0 0.00 0.00 0.00 29 1008.6
20260505215515 55 261 10.0 18.0 0.00 0.00 0.00 30 1008.4
20260505215015 56 252 9.0 22.0 0.00 0.00 0.00 32 1008.5
20260505214553 55 346 13.0 22.0 0.00 0.00 0.00 30 1008.6
20260505214016 55 351 13.0 20.0 0.00 0.00 0.00 30 1008.4
20260505213518 55 340 11.0 19.0 0.00 0.00 0.00 32 1008.5
20260505213029 56 314 12.0 25.0 0.00 0.00 0.00 29 1008.5
20260505212515 55 328 15.0 25.0 0.00 0.00 0.00 29 1008.6
20260505212016 56 290 11.0 23.0 0.00 0.00 0.00 29 1008.5
20260505211534 56 321 12.0 23.0 0.00 0.00 0.00 29 1008.5
20260505211016 56 302 13.0 20.0 0.00 0.00 0.00 31 1008.5
20260505210515 56 50 11.0 21.0 0.00 0.00 0.00 29 1008.4
20260505210033 56 312 12.0 23.0 0.00 0.00 0.00 30 1008.7
20260505205515 55 300 12.0 23.0 0.00 0.00 0.00 29 1008.5
20260505205017 56 301 11.0 22.0 0.00 0.00 0.00 32 1008.6
20260505204534 56 346 14.0 22.0 0.00 0.00 0.00 29 1008.6
20260505204015 55 321 13.0 21.0 0.00 0.00 0.00 29 1008.7
20260505203520 55 302 14.0 24.0 0.00 0.00 0.00 30 1008.7
20260505203034 55 325 15.0 24.0 0.00 0.00 0.00 30 1008.8
20260505202516 55 309 14.0 24.0 0.00 0.00 0.00 31 1008.7
20260505202015 55 299 11.0 23.0 0.00 0.00 0.00 30 1008.9
20260505201530 55 284 12.0 22.0 0.00 0.00 0.00 30 1008.7
20260505201015 55 327 11.0 24.0 0.00 0.00 0.00 32 1008.8
20260505200516 55 266 11.0 24.0 0.00 0.00 0.00 32 1008.8
20260505200041 56 316 11.0 19.0 0.00 0.00 0.00 30 1008.8
20260505195515 55 320 11.0 25.0 0.00 0.00 0.00 31 1008.7
20260505195015 55 270 11.0 25.0 0.00 0.00 0.00 34 1008.8
20260505194529 54 319 14.0 24.0 0.00 0.00 0.00 32 1008.8
20260505194017 54 309 12.0 23.0 0.00 0.00 0.00 32 1008.8
20260505193518 54 306 12.0 23.0 0.00 0.00 0.00 34 1008.7
20260505193029 54 301 13.0 23.0 0.00 0.00 0.00 33 1008.7
20260505192519 54 322 11.0 26.0 0.00 0.00 0.00 33 1008.7
20260505192019 54 304 12.0 26.0 0.00 0.00 0.00 33 1008.8
20260505191530 55 304 11.0 22.0 0.00 0.00 0.00 32 1008.6
20260505191016 55 273 10.0 19.0 0.00 0.00 0.00 32 1008.7
20260505190515 55 301 9.0 25.0 0.00 0.00 0.00 32 1008.6
20260505190030 55 290 14.0 25.0 0.00 0.00 0.00 33 1008.7
20260505185518 54 309 13.0 25.0 0.00 0.00 0.00 32 1008.6
20260505185021 54 322 16.0 24.0 0.00 0.00 0.00 34 1008.3
20260505184533 54 315 14.0 29.0 0.00 0.00 0.00 35 1008.4
20260505184013 54 284 15.0 29.0 0.00 0.00 0.00 33 1008.5
20260505183516 55 299 13.0 28.0 0.00 0.00 0.00 33 1008.3
20260505183046 55 250 12.0 23.0 0.00 0.00 0.00 35 1008.3
20260505182516 55 304 11.0 24.0 0.00 0.00 0.00 35 1008.3
20260505182016 54 318 16.0 24.0 0.00 0.00 0.00 34 1008.3
20260505181531 55 325 13.0 23.0 0.00 0.00 0.00 37 1008.2
20260505181015 54 258 9.0 20.0 0.00 0.00 0.00 35 1008.1
20260505180515 54 326 14.0 21.0 0.00 0.00 0.00 35 1008.2
20260505180030 55 315 10.0 25.0 0.00 0.00 0.00 39 1008.1
20260505175516 53 322 16.0 26.0 0.00 0.00 0.00 35 1008.1
20260505175016 53 328 12.0 26.0 0.00 0.00 0.00 36 1008.3
20260505174534 53 333 13.0 26.0 0.00 0.00 0.00 36 1008.4
20260505174016 53 313 16.0 26.0 0.00 0.00 0.00 36 1008.3
20260505173519 53 314 15.0 22.0 0.00 0.00 0.00 35 1008.2
20260505173030 53 249 10.0 24.0 0.00 0.00 0.00 38 1008.2
20260505172515 53 253 12.0 24.0 0.00 0.00 0.00 39 1008.2
20260505172015 52 269 11.0 22.0 0.00 0.00 0.00 39 1008.2
20260505171532 53 245 10.0 22.0 0.00 0.00 0.00 38 1008.2
20260505171016 53 252 12.0 22.0 0.00 0.00 0.00 39 1008.1
20260505170515 52 252 9.0 22.0 0.00 0.00 0.00 40 1008.1
20260505170032 53 308 13.0 22.0 0.00 0.00 0.00 38 1008.2
20260505165515 52 259 10.0 19.0 0.00 0.00 0.00 39 1008.0
20260505165019 52 307 11.0 21.0 0.00 0.00 0.00 39 1008.2
20260505164529 52 248 11.0 21.0 0.00 0.00 0.00 38 1008.2
20260505164015 52 274 11.0 23.0 0.00 0.00 0.00 40 1008.2
20260505163516 52 276 11.0 23.0 0.00 0.00 0.00 39 1008.3
20260505163032 52 160 10.0 20.0 0.00 0.00 0.00 42 1008.3
20260505162516 51 312 12.0 24.0 0.00 0.00 0.00 41 1008.2
20260505162016 51 304 12.0 24.0 0.00 0.00 0.00 41 1008.2
20260505161530 52 318 11.0 21.0 0.00 0.00 0.00 40 1008.3
20260505161016 51 271 11.0 23.0 0.00 0.00 0.00 43 1008.3
20260505160517 51 281 12.0 23.0 0.00 0.00 0.00 42 1008.3
20260505153029 51 280 8.0 18.0 0.00 0.00 0.00 41 1008.3
20260505152514 50 298 8.0 18.0 0.00 0.00 0.00 44 1008.3
20260505152017 50 234 9.0 17.0 0.00 0.00 0.00 43 1008.3
20260505151531 50 279 10.0 14.0 0.00 0.00 0.00 44 1008.2
20260505151016 50 321 7.0 14.0 0.00 0.00 0.00 46 1008.2
20260505150525 49 237 8.0 13.0 0.00 0.00 0.00 45 1008.3
20260505140512 49 259 11.0 18.0 0.00 0.00 0.00 46 1008.3
20260505125018 47 205 5.0 9.0 0.00 0.00 0.00 48 1008.8
20260505124537 47 272 4.0 9.0 0.00 0.00 0.00 50 1008.8
20260505124016 46 221 3.0 9.0 0.00 0.00 0.00 53 1008.7
20260505123519 45 267 2.0 8.0 0.00 0.00 0.00 53 1008.6
20260505123037 45 251 3.0 8.0 0.00 0.00 0.00 54 1008.6
20260505122520 45 9 3.0 7.0 0.00 0.00 0.00 55 1008.5
20260505122016 44 240 2.0 5.0 0.00 0.00 0.00 56 1008.2
20260505121539 44 213 3.0 6.0 0.00 0.00 0.00 56 1008.0
20260505121016 43 188 3.0 6.0 0.00 0.00 0.00 57 1007.7
20260505120517 43 264 2.0 6.0 0.00 0.00 0.00 57 1007.4
20260505120045 42 254 2.0 4.0 0.00 0.00 0.00 57 1007.5
20260505115521 42 304 2.0 4.0 0.00 0.00 0.00 58 1007.4
20260505115018 42 273 2.0 4.0 0.00 0.00 0.00 58 1007.3
20260505114544 41 253 2.0 4.0 0.00 0.00 0.00 57 1007.3
20260505114018 41 264 0.0 2.0 0.00 0.00 0.00 57 1007.3
20260505113517 41 239 0.0 2.0 0.00 0.00 0.00 58 1007.3
20260505113035 40 224 0.0 2.0 0.00 0.00 0.00 58 1007.4
20260505112516 40 224 0.0 2.0 0.00 0.00 0.00 59 1007.4
20260505112016 40 224 0.0 2.0 0.00 0.00 0.00 58 1007.4
20260505111531 40 217 1.0 2.0 0.00 0.00 0.00 58 1007.2
20260505111018 40 215 1.0 2.0 0.00 0.00 0.00 58 1007.2
20260505110515 40 234 1.0 2.0 0.00 0.00 0.00 58 1007.1
20260505102015 42 265 1.0 3.0 0.00 0.00 0.00 53 1006.5
20260505101541 42 277 2.0 3.0 0.00 0.00 0.00 53 1006.5
20260505101017 43 279 1.0 3.0 0.00 0.00 0.00 53 1006.4
20260505100515 43 289 1.0 3.0 0.00 0.00 0.00 53 1006.4
20260505100029 43 292 1.0 3.0 0.00 0.00 0.00 53 1006.4
20260505095515 43 296 1.0 4.0 0.00 0.00 0.00 52 1006.4
20260505095015 43 318 1.0 5.0 0.00 0.00 0.00 51 1006.5
20260505094536 43 293 2.0 5.0 0.00 0.00 0.00 51 1006.7
20260505094015 43 294 3.0 6.0 0.00 0.00 0.00 51 1006.6
20260505093515 43 298 2.0 6.0 0.00 0.00 0.00 51 1006.3
20260505093031 44 310 3.0 8.0 0.00 0.00 0.00 50 1006.4
20260505092518 44 300 3.0 8.0 0.00 0.00 0.00 50 1006.2
20260505092016 44 310 4.0 9.0 0.00 0.00 0.00 50 1006.1
20260505091534 44 295 4.0 9.0 0.00 0.00 0.00 50 1006.2
20260505091015 44 327 3.0 9.0 0.00 0.00 0.00 50 1006.1
20260505090515 44 320 5.0 8.0 0.00 0.00 0.00 49 1006.2
20260505090032 45 292 4.0 8.0 0.00 0.00 0.00 49 1006.0
20260505085519 45 322 4.0 8.0 0.00 0.00 0.00 49 1005.7
20260505085016 45 318 4.0 9.0 0.00 0.00 0.00 48 1005.6
20260505084532 45 300 4.0 9.0 0.00 0.00 0.00 48 1005.4
20260505084016 45 315 4.0 8.0 0.00 0.00 0.00 48 1005.3
20260505083514 45 306 3.0 10.0 0.00 0.00 0.00 48 1005.2
20260505083030 45 291 6.0 10.0 0.00 0.00 0.00 48 1005.1
20260505082518 45 313 5.0 13.0 0.00 0.00 0.00 48 1004.9
20260505082019 46 348 5.0 13.0 0.00 0.00 0.00 48 1004.8
20260505081530 46 309 6.0 13.0 0.00 0.00 0.00 48 1004.7
20260505081024 46 315 6.0 13.0 0.00 0.00 0.00 48 1004.6
20260505080516 46 323 5.0 13.0 0.00 0.00 0.00 48 1004.3
20260505080032 46 340 5.0 13.0 0.00 0.00 0.00 48 1004.3
20260505075515 46 317 7.0 15.0 0.00 0.00 0.00 48 1004.2
20260505075021 47 290 6.0 15.0 0.00 0.00 0.00 48 1004.1
20260505074531 47 336 8.0 15.0 0.00 0.00 0.00 48 1004.2
20260505074015 47 360 8.0 12.0 0.00 0.00 0.00 49 1004.2
20260505073520 47 316 7.0 15.0 0.00 0.00 0.00 49 1004.1
20260505073030 47 309 7.0 15.0 0.00 0.00 0.00 48 1004.2
20260505072516 48 311 9.0 17.0 0.00 0.00 0.00 47 1004.3
20260505072015 48 314 10.0 22.0 0.00 0.00 0.00 47 1004.1
20260505071534 48 327 10.0 22.0 0.00 0.00 0.00 46 1004.2
20260505071015 48 311 9.0 17.0 0.00 0.00 0.00 46 1004.2
20260505070521 48 321 8.0 17.0 0.00 0.00 0.00 46 1004.0
20260505070031 48 298 10.0 19.0 0.00 0.00 0.00 46 1004.0
20260505065515 49 352 9.0 19.0 0.00 0.00 0.00 46 1004.0
20260505065016 49 360 8.0 18.0 0.00 0.00 0.00 46 1003.6
20260505064530 49 332 8.0 18.0 0.00 0.00 0.00 45 1003.7
20260505064015 50 311 8.0 19.0 0.00 0.00 0.00 45 1003.9
20260505063515 50 311 9.0 19.0 0.00 0.00 0.00 46 1003.9
20260505063030 50 76 11.0 19.0 0.00 0.00 0.00 46 1003.9
20260505062516 50 340 10.0 17.0 0.00 0.00 0.00 48 1003.8
20260505062012 51 327 7.0 17.0 0.00 0.00 0.00 48 1003.6
20260505061530 51 321 8.0 15.0 0.00 0.00 0.00 47 1003.6
20260505061018 51 328 7.0 14.0 0.00 0.00 0.00 47 1003.6
20260505060515 51 313 9.0 17.0 0.00 0.00 0.00 46 1003.6
20260505060042 51 305 10.0 16.0 0.00 0.00 0.00 46 1003.3
20260505055520 52 296 9.0 16.0 0.00 0.00 0.00 46 1003.4
20260505055014 52 309 10.0 16.0 0.00 0.00 0.00 45 1003.1
20260505054533 52 338 10.0 16.0 0.00 0.00 0.00 45 1003.2
20260505054013 52 311 12.0 19.0 0.00 0.00 0.00 45 1003.1
20260505053513 53 315 12.0 19.0 0.00 0.00 0.00 45 1003.0
20260505053031 53 325 11.0 20.0 0.00 0.00 0.00 45 1002.8
20260505052515 53 322 8.0 20.0 0.00 0.00 0.00 45 1002.8
20260505052016 53 321 13.0 20.0 0.00 0.00 0.00 45 1002.8
20260505051531 53 344 11.0 17.0 0.00 0.00 0.00 45 1002.6
20260505051016 53 315 7.0 16.0 0.00 0.00 0.00 45 1002.4
20260505050515 54 332 9.0 16.0 0.00 0.00 0.00 44 1002.3
20260505041531 56 296 8.0 14.0 0.00 0.00 0.00 38 1001.7
20260505041016 57 324 7.0 14.0 0.00 0.00 0.00 38 1001.7
20260505040516 57 326 8.0 14.0 0.00 0.00 0.00 37 1001.5
20260505040031 57 324 5.0 14.0 0.00 0.00 0.00 37 1001.4
20260505035518 58 296 6.0 14.0 0.00 0.00 0.00 36 1001.3
20260505035015 58 313 7.0 12.0 0.00 0.00 0.00 36 1001.2
20260505034530 58 317 8.0 12.0 0.00 0.00 0.00 35 1001.1
20260505034015 58 315 8.0 14.0 0.00 0.00 0.00 34 1001.1
20260505033516 59 317 7.0 14.0 0.00 0.00 0.00 34 1000.9
20260505033029 59 310 8.0 14.0 0.00 0.00 0.00 33 1000.9
20260505032515 59 315 5.0 11.0 0.00 0.00 0.00 33 1000.8
20260505032015 59 31 5.0 11.0 0.00 0.00 0.00 34 1000.6
20260505031529 59 243 6.0 12.0 0.00 0.00 0.00 33 1000.5
20260505031015 59 319 6.0 12.0 0.00 0.00 0.00 34 1000.4
20260505030512 60 312 7.0 12.0 0.00 0.00 0.00 34 1000.3
20260505030032 60 277 6.0 13.0 0.00 0.00 0.00 35 1000.0
20260505025521 60 274 6.0 13.0 0.00 0.00 0.00 36 999.9
20260505025015 60 274 6.0 12.0 0.00 0.00 0.00 36 999.8
20260505024533 60 257 6.0 13.0 0.00 0.00 0.00 37 999.8
20260505024015 61 284 5.0 13.0 0.00 0.00 0.00 37 999.8
20260505023515 61 302 7.0 13.0 0.00 0.00 0.00 37 999.7
20260505023030 61 286 6.0 13.0 0.00 0.00 0.00 37 999.7
20260505022515 61 265 7.0 13.0 0.00 0.00 0.00 37 999.6
20260505022022 62 299 5.0 14.0 0.00 0.00 0.00 37 999.6
20260505021531 62 296 7.0 16.0 0.00 0.00 0.00 37 999.4
20260505021015 62 302 8.0 16.0 0.00 0.00 0.00 36 999.3
20260505020515 62 321 7.0 18.0 0.00 0.00 0.00 36 999.1
20260505020031 63 309 8.0 18.0 0.00 0.00 0.00 37 999.1
20260505015515 63 292 10.0 18.0 0.00 0.00 0.00 37 998.9
20260505015015 63 244 10.0 17.0 0.00 0.00 0.00 38 998.6
20260505014532 63 308 9.0 17.0 0.00 0.00 0.00 38 998.5
20260505014019 63 275 10.0 17.0 0.00 0.00 0.00 38 998.4
20260505013514 63 312 9.0 16.0 0.00 0.00 0.00 37 998.1
20260505013046 64 302 9.0 16.0 0.00 0.00 0.00 37 997.9
20260505012516 64 304 9.0 15.0 0.00 0.00 0.00 37 997.6
20260505012016 65 301 9.0 17.0 0.00 0.00 0.00 36 997.6
20260505011532 65 283 12.0 17.0 0.00 0.00 0.00 36 997.5
20260505011015 65 333 9.0 21.0 0.00 0.00 0.00 36 997.3
20260505010519 66 317 12.0 21.0 0.00 0.00 0.00 35 997.4
20260505010031 66 284 9.0 17.0 0.00 0.00 0.00 35 997.3
20260505005515 66 313 9.0 20.0 0.00 0.00 0.00 34 997.2
20260505005016 66 336 11.0 20.0 0.00 0.00 0.00 35 997.1
20260505004530 67 312 9.0 20.0 0.00 0.00 0.00 35 997.1
20260505004015 67 313 8.0 20.0 0.00 0.00 0.00 35 997.0
20260505003516 68 308 12.0 20.0 0.00 0.00 0.00 34 996.9
20260505003034 68 302 9.0 21.0 0.00 0.00 0.00 35 996.9
20260505002516 69 360 10.0 21.0 0.00 0.00 0.00 35 996.9
20260505002015 69 345 12.0 23.0 0.00 0.00 0.00 34 996.7
20260505001531 70 352 13.0 23.0 0.00 0.00 0.00 35 996.8
20260505001014 70 311 13.0 19.0 0.00 0.00 0.00 36 996.5